This is the latest recevied weather packets stored in our database for station/object KN4MGS. If no packets are shown the sender has not sent any weather packets the latest 10 day(s).
| Time | Temp. | Humidity | Pressure | Rain* | Wind** | Luminosity | Snow |
|---|---|---|---|---|---|---|---|
| 1777057338 | 31.11° C | 37% | 1014.3 hPa | 0 mm | - | 718 W/m² | - |
| 1777057033 | 30° C | 37% | 1014.4 hPa | 0 mm | - | 753 W/m² | - |
| 1777056732 | 28.89° C | 38% | 1014.4 hPa | 0 mm | - | 704 W/m² | - |
| 1777056429 | 28.89° C | 38% | 1014.8 hPa | 0 mm | - | 179 W/m² | - |
| 1777056124 | 29.44° C | 37% | 1014.7 hPa | 0 mm | - | 753 W/m² | - |
| 1777055820 | 30° C | 37% | 1014.8 hPa | 0 mm | - | 727 W/m² | - |
| 1777055517 | 30° C | 40% | 1014.5 hPa | 0 mm | - | 742 W/m² | - |
| 1777055210 | 30° C | 37% | 1014.9 hPa | 0 mm | - | 788 W/m² | - |
| 1777054905 | 30° C | 36% | 1014.9 hPa | 0 mm | - | 794 W/m² | - |
| 1777054602 | 30° C | 40% | 1015 hPa | 0 mm | - | 865 W/m² | - |
| 1777054299 | 30° C | 38% | 1015 hPa | 0 mm | - | 882 W/m² | - |
| 1777053998 | 28.89° C | 41% | 1015.4 hPa | 0 mm | - | 667 W/m² | - |
| 1777053693 | 27.78° C | 43% | 1015.2 hPa | 0 mm | - | 849 W/m² | - |
| 1777053392 | 27.78° C | 44% | 1015.3 hPa | 0 mm | - | 228 W/m² | - |
| 1777053088 | 28.33° C | 43% | 1015.1 hPa | 0 mm | - | 197 W/m² | - |
| 1777052785 | 27.78° C | 44% | 1015.1 hPa | 0 mm | - | 182 W/m² | - |
| 1777052484 | 28.33° C | 42% | 1015.3 hPa | 0 mm | - | 202 W/m² | - |
| 1777052181 | 28.89° C | 41% | 1015.3 hPa | 0 mm | - | 225 W/m² | - |
| 1777051881 | 29.44° C | 40% | 1015.6 hPa | 0 mm | - | 584 W/m² | - |
| 1777051579 | 30° C | 40% | 1015.6 hPa | 0 mm | - | 793 W/m² | - |
| 1777051275 | 29.44° C | 41% | 1015.6 hPa | 0 mm | - | 693 W/m² | - |
* Rain latest hour (hover to see other rain measurements)
** Current wind speed in m/s (hover to see current wind gust speed)